Location: Sundre
(51.7972°N, 114.6405°W)
Time: 14:49:45
(UTC-07:00)

TIGRISAT - Pass Details

Date: 27 January 2020
Orbit: 605 x 690 km, 97.7° (Epoch: 19 February)

Event Time Altitude Azimuth Distance (km) Brightness Sun altitude
Rises 07:01:41 0° 128° (SE) 2,909 ? -12.9°
Reaches altitude 10° 07:04:14 10° 114° (ESE) 1,993 ? -12.5°
Maximum altitude 07:07:38 23° 62° (ENE) 1,318 ? -12.0°
Drops below altitude 10° 07:11:01 10° 10° (N) 1,976 ? -11.5°
Sets 07:13:31 0° 356° (N) 2,879 ? -11.1°
